Hourly Weather Brussels

Today, 6 May, Thursday

Time Temperature Precipitation Wind Pressure Humidity
00:00 +2°C° 0 mm 5 mps 752 mmHg 90%
01:00 +3°C° 0 mm 4 mps 752 mmHg 91%
02:00 +3°C° 0 mm 4 mps 751 mmHg 91%
03:00 +3°C° 0 mm 4 mps 751 mmHg 92%
04:00 +3°C° 0 mm 4 mps 751 mmHg 91%
05:00 +4°C° 0 mm 4 mps 751 mmHg 90%
06:00 +4°C° 0 mm 4 mps 750 mmHg 89%
07:00 +5°C° 0.2 mm 4 mps 750 mmHg 83%
08:00 +6°C° 0.2 mm 4 mps 750 mmHg 78%
09:00 +7°C° 0.2 mm 4 mps 750 mmHg 73%
10:00 +7°C° 0.2 mm 4 mps 750 mmHg 74%
11:00 +8°C° 0.2 mm 3 mps 750 mmHg 76%
12:00 +8°C° 0.2 mm 3 mps 749 mmHg 78%
13:00 +8°C° 0.2 mm 3 mps 749 mmHg 78%
14:00 +8°C° 0.2 mm 3 mps 749 mmHg 78%
15:00 +8°C° 0.2 mm 2 mps 750 mmHg 78%
16:00 +8°C° 0.3 mm 2 mps 750 mmHg 77%
17:00 +7°C° 0.3 mm 2 mps 750 mmHg 76%
18:00 +7°C° 0.3 mm 2 mps 751 mmHg 75%
19:00 +6°C° 0 mm 2 mps 751 mmHg 76%
20:00 +5°C° 0 mm 2 mps 752 mmHg 77%
21:00 +4°C° 0 mm 2 mps 752 mmHg 77%
22:00 +3°C° 0 mm 2 mps 753 mmHg 78%
23:00 +3°C° 0 mm 2 mps 753 mmHg 79%

Tomorrow, 7 May, Friday

Time Temperature Precipitation Wind Pressure Humidity
00:00 +2°C° 0 mm 2 mps 753 mmHg 81%
01:00 +1°C° 0 mm 3 mps 754 mmHg 83%
02:00 0°C° 0 mm 3 mps 754 mmHg 85%
03:00 0°C° 0 mm 3 mps 754 mmHg 87%
04:00 +1°C° 0 mm 3 mps 755 mmHg 86%
05:00 +2°C° 0 mm 3 mps 755 mmHg 85%
06:00 +3°C° 0 mm 3 mps 755 mmHg 83%
07:00 +5°C° 0 mm 4 mps 755 mmHg 75%
08:00 +7°C° 0 mm 4 mps 755 mmHg 67%
09:00 +10°C° 0 mm 4 mps 755 mmHg 59%
10:00 +11°C° 0 mm 4 mps 755 mmHg 55%
11:00 +12°C° 0 mm 4 mps 755 mmHg 51%
12:00 +13°C° 0 mm 4 mps 754 mmHg 47%
13:00 +12°C° 0 mm 4 mps 754 mmHg 52%
14:00 +12°C° 0 mm 4 mps 753 mmHg 57%
15:00 +12°C° 0 mm 4 mps 753 mmHg 61%
16:00 +11°C° 0.2 mm 3 mps 753 mmHg 70%
17:00 +10°C° 0.2 mm 3 mps 752 mmHg 78%
18:00 +9°C° 0.2 mm 2 mps 752 mmHg 87%
19:00 +8°C° 0.6 mm 2 mps 751 mmHg 90%
20:00 +8°C° 0.6 mm 2 mps 751 mmHg 93%
21:00 +8°C° 0.6 mm 2 mps 750 mmHg 97%
22:00 +8°C° 0.9 mm 2 mps 750 mmHg 97%
23:00 +8°C° 0.9 mm 2 mps 749 mmHg 98%

Day after tomorrow, 8 May, Saturday

Time Temperature Precipitation Wind Pressure Humidity
00:00 +8°C° 0.9 mm 2 mps 748 mmHg 98%
01:00 +8°C° 1.1 mm 3 mps 748 mmHg 98%
02:00 +8°C° 1.1 mm 3 mps 747 mmHg 98%
03:00 +8°C° 1.1 mm 3 mps 746 mmHg 98%
04:00 +8°C° 0.9 mm 3 mps 746 mmHg 97%
05:00 +8°C° 0.9 mm 4 mps 745 mmHg 97%
06:00 +8°C° 0.9 mm 4 mps 745 mmHg 96%
07:00 +10°C° 1.5 mm 4 mps 745 mmHg 96%
08:00 +10°C° 1.5 mm 4 mps 744 mmHg 97%
09:00 +11°C° 1.5 mm 4 mps 743 mmHg 97%
10:00 +12°C° 2.1 mm 5 mps 743 mmHg 95%
11:00 +11°C° 2.1 mm 7 mps 743 mmHg 92%
12:00 +12°C° 2.1 mm 8 mps 742 mmHg 90%
13:00 +12°C° 0.3 mm 8 mps 742 mmHg 88%
14:00 +13°C° 0.3 mm 8 mps 742 mmHg 85%
15:00 +13°C° 0.3 mm 8 mps 742 mmHg 83%
16:00 +12°C° 0.1 mm 8 mps 742 mmHg 82%
17:00 +12°C° 0.1 mm 8 mps 742 mmHg 82%
18:00 +11°C° 0.1 mm 7 mps 741 mmHg 82%
19:00 +11°C° 0 mm 8 mps 741 mmHg 81%
20:00 +11°C° 0 mm 8 mps 741 mmHg 81%
21:00 +11°C° 0 mm 8 mps 741 mmHg 80%
22:00 +10°C° 0.1 mm 8 mps 741 mmHg 81%
23:00 +9°C° 0.1 mm 8 mps 742 mmHg 83%

9 May, Sunday

Time Temperature Precipitation Wind Pressure Humidity
00:00 +9°C° 0.1 mm 8 mps 742 mmHg 84%

10 May, Monday

Time Temperature Precipitation Wind Pressure Humidity

11 May, Tuesday

Time Temperature Precipitation Wind Pressure Humidity
Show more

We Need Your Consent

Meteoprog and our Service Providers may store and access personal data such as cookies, device identifiers or other similar technologies on your device and process such data to personalise content and ads, as well as provide social media features and to analyse the traffic.

  • Store and/or access information on your device

    Cookies, device identifiers or other information can be stored or accessed on your device for the purposes indicated above.

  • Personalised ads and content, ad and content measurement, audience insights, and products development

    Ads and content can be personalised based on a profile. More data can be added to better personalise ads and content. Ad and content performance can be measured. Insights about the audience who saw the ads and content can be derived. Such data can be used to develop or improve user’s experience, systems and software.

By clicking ‘I Agree’ you will allow the use of indicated cookies, device identifiers, web beacons or other similar technologies. Your settings can be changed in the browser on your device.

For certain purposes, legitimate interests may be relied on, rather than consent. You can read more about this in our Privacy and Cookie Policy.